This is the latest recevied weather packets stored in our database for station/object SV2LPQ-2. If no packets are shown the sender has not sent any weather packets the latest 10 day(s).
| Time | Temp. | Humidity | Pressure | Rain* | Wind** | Luminosity | Snow |
|---|---|---|---|---|---|---|---|
| 1777729755 | 17.22° C | 37% | 1042.5 hPa | 0 mm | - | - | - |
| 1777729255 | 17.22° C | 38% | 1042.5 hPa | 0 mm | - | - | - |
| 1777728756 | 17.22° C | 36% | 1042.5 hPa | 0 mm | - | - | - |
| 1777728255 | 17.78° C | 37% | 1042.5 hPa | 0 mm | - | - | - |
| 1777727755 | 17.78° C | 34% | 1042.5 hPa | 0 mm | - | - | - |
| 1777727256 | 18.33° C | 34% | 1042.5 hPa | 0 mm | - | - | - |
| 1777726756 | 18.89° C | 32% | 1042.5 hPa | 0 mm | - | - | - |
| 1777726255 | 19.44° C | 33% | 1042.5 hPa | 0 mm | - | - | - |
| 1777725756 | 20° C | 32% | 1042.5 hPa | 0 mm | - | - | - |
| 1777725255 | 18.89° C | 33% | 1042.5 hPa | 0 mm | - | - | - |
| 1777724755 | 18.33° C | 32% | 1042.5 hPa | 0 mm | - | - | - |
| 1777724256 | 18.89° C | 32% | 1042.5 hPa | 0 mm | - | - | - |
| 1777723756 | 19.44° C | 32% | 1042.5 hPa | 0 mm | - | - | - |
| 1777723255 | 19.44° C | 32% | 1042.5 hPa | 0 mm | - | - | - |
| 1777722756 | 18.89° C | 33% | 1042.5 hPa | 0 mm | - | - | - |
| 1777722255 | 19.44° C | 35% | 1042.5 hPa | 0 mm | - | - | - |
| 1777721755 | 18.89° C | 35% | 1042.5 hPa | 0 mm | - | - | - |
| 1777721256 | 18.89° C | 35% | 1042.5 hPa | 0 mm | - | - | - |
| 1777720755 | 18.89° C | 35% | 1042.5 hPa | 0 mm | - | - | - |
| 1777720255 | 18.33° C | 36% | 1042.5 hPa | 0 mm | - | - | - |
| 1777719756 | 17.78° C | 38% | 1042.5 hPa | 0 mm | - | - | - |
| 1777719255 | 17.22° C | 38% | 1042.5 hPa | 0 mm | - | - | - |
| 1777718755 | 17.22° C | 38% | 1042.5 hPa | 0 mm | - | - | - |
| 1777718256 | 16.67° C | 39% | 1042.5 hPa | 0 mm | - | - | - |
| 1777717756 | 16.67° C | 38% | 1042.5 hPa | 0 mm | - | - | - |
* Rain latest hour (hover to see other rain measurements)
** Current wind speed in m/s (hover to see current wind gust speed)